TimeCDT,TemperatureF,Dew PointF,Humidity,Sea Level PressureIn,VisibilityMPH,Wind Direction,Wind SpeedMPH,Gust SpeedMPH,PrecipitationIn,Events,Conditions,WindDirDegrees,DateUTC
12:13 AM,64.4,60.8,88,29.81,3.0,Calm,Calm,-,0.09,,Scattered Clouds,0,2013-07-06 05:13:00
12:33 AM,64.4,60.8,88,29.81,2.5,Calm,Calm,-,0.09,,Clear,0,2013-07-06 05:33:00
12:53 AM,62.6,60.8,94,29.81,1.8,Calm,Calm,-,N/A,,Mist,0,2013-07-06 05:53:00
1:13 AM,62.6,60.8,94,29.81,2.5,Calm,Calm,-,N/A,,Clear,0,2013-07-06 06:13:00
1:33 AM,62.6,59.0,88,29.81,2.0,Calm,Calm,-,N/A,,Clear,0,2013-07-06 06:33:00
1:53 AM,62.6,59.0,88,29.81,3.0,Calm,Calm,-,N/A,,Clear,0,2013-07-06 06:53:00
2:13 AM,60.8,57.2,88,29.80,2.0,Calm,Calm,-,0.01,,Clear,0,2013-07-06 07:13:00
2:33 AM,60.8,57.2,88,29.81,1.8,Calm,Calm,-,0.01,,Mist,0,2013-07-06 07:33:00
2:53 AM,60.8,57.2,88,29.81,1.8,Calm,Calm,-,N/A,,Mist,0,2013-07-06 07:53:00
3:13 AM,59.0,55.4,88,29.81,2.0,Calm,Calm,-,N/A,,Clear,0,2013-07-06 08:13:00
3:33 AM,59.0,55.4,88,29.82,2.0,Calm,Calm,-,N/A,,Clear,0,2013-07-06 08:33:00
3:53 AM,59.0,55.4,88,29.82,2.0,Calm,Calm,-,N/A,,Clear,0,2013-07-06 08:53:00
4:13 AM,57.2,55.4,94,29.82,3.0,Calm,Calm,-,N/A,,Clear,0,2013-07-06 09:13:00
4:33 AM,57.2,55.4,94,29.83,3.0,Calm,Calm,-,N/A,,Clear,0,2013-07-06 09:33:00
4:53 AM,57.2,55.4,94,29.83,2.5,Calm,Calm,-,N/A,,Clear,0,2013-07-06 09:53:00
5:13 AM,57.2,53.6,88,29.83,7.0,Calm,Calm,-,N/A,,Clear,0,2013-07-06 10:13:00
5:33 AM,57.2,53.6,88,29.83,2.0,Calm,Calm,-,N/A,,Clear,0,2013-07-06 10:33:00
5:53 AM,57.2,53.6,88,29.84,4.0,Calm,Calm,-,N/A,,Clear,0,2013-07-06 10:53:00
6:13 AM,57.2,53.6,88,29.84,5.0,Calm,Calm,-,N/A,,Clear,0,2013-07-06 11:13:00
6:33 AM,60.8,55.4,82,29.84,3.0,Calm,Calm,-,N/A,,Clear,0,2013-07-06 11:33:00
6:53 AM,62.6,57.2,82,29.85,7.0,Calm,Calm,-,N/A,,Clear,0,2013-07-06 11:53:00
7:13 AM,66.2,60.8,83,29.85,10.0,Calm,Calm,-,N/A,,Clear,0,2013-07-06 12:13:00
7:33 AM,69.8,60.8,73,29.85,10.0,Calm,Calm,-,N/A,,Clear,0,2013-07-06 12:33:00
7:53 AM,69.8,60.8,73,29.85,10.0,Calm,Calm,-,N/A,,Clear,0,2013-07-06 12:53:00
8:13 AM,71.6,60.8,69,29.85,10.0,WSW,3.5,-,N/A,,Clear,240,2013-07-06 13:13:00
8:33 AM,73.4,60.8,65,29.85,10.0,Calm,Calm,-,N/A,,Clear,0,2013-07-06 13:33:00
8:53 AM,73.4,60.8,65,29.85,10.0,SW,4.6,-,N/A,,Clear,220,2013-07-06 13:53:00
9:13 AM,73.4,60.8,65,29.85,10.0,Calm,Calm,-,N/A,,Clear,0,2013-07-06 14:13:00
9:33 AM,75.2,60.8,61,29.85,10.0,SSW,5.8,-,N/A,,Clear,210,2013-07-06 14:33:00
9:53 AM,75.2,59.0,57,29.84,10.0,Calm,Calm,-,N/A,,Clear,0,2013-07-06 14:53:00
10:13 AM,75.2,60.8,61,29.85,10.0,Calm,Calm,-,N/A,,Clear,0,2013-07-06 15:13:00
10:33 AM,75.2,59.0,57,29.85,10.0,SSW,5.8,-,N/A,,Clear,200,2013-07-06 15:33:00
10:53 AM,75.2,60.8,61,29.85,10.0,Calm,Calm,-,N/A,,Clear,0,2013-07-06 15:53:00
11:13 AM,75.2,60.8,61,29.85,10.0,Calm,Calm,-,N/A,,Clear,0,2013-07-06 16:13:00
11:33 AM,75.2,60.8,61,29.86,10.0,South,4.6,-,N/A,,Clear,190,2013-07-06 16:33:00
11:53 AM,75.2,60.8,61,29.85,10.0,SSW,4.6,-,N/A,,Clear,210,2013-07-06 16:53:00
12:13 PM,75.2,60.8,61,29.86,10.0,SSW,9.2,-,N/A,,Clear,210,2013-07-06 17:13:00
12:33 PM,75.2,59.0,57,29.86,10.0,SSW,8.1,-,N/A,,Clear,210,2013-07-06 17:33:00
12:53 PM,75.2,59.0,57,29.87,10.0,SW,5.8,-,N/A,,Clear,230,2013-07-06 17:53:00
1:13 PM,73.4,62.6,69,29.87,5.0,Calm,Calm,-,0.02,Rain,Rain,0,2013-07-06 18:13:00
1:33 PM,71.6,64.4,78,29.88,7.0,Calm,Calm,-,0.02,Rain,Light Rain,0,2013-07-06 18:33:00
1:53 PM,71.6,64.4,78,29.88,7.0,Calm,Calm,-,N/A,Rain,Light Rain,0,2013-07-06 18:53:00
2:13 PM,71.6,64.4,78,29.88,7.0,Calm,Calm,-,0.02,Rain,Light Rain,0,2013-07-06 19:13:00
2:33 PM,71.6,64.4,78,29.87,5.0,Calm,Calm,-,0.03,Rain,Light Rain,0,2013-07-06 19:33:00
2:53 PM,71.6,64.4,78,29.87,7.0,Calm,Calm,-,N/A,Rain,Light Rain,0,2013-07-06 19:53:00
3:13 PM,71.6,64.4,78,29.87,7.0,Calm,Calm,-,N/A,,Clear,0,2013-07-06 20:13:00
3:33 PM,71.6,64.4,78,29.86,7.0,Calm,Calm,-,N/A,Rain,Light Rain,0,2013-07-06 20:33:00
3:53 PM,71.6,64.4,78,29.87,7.0,Calm,Calm,-,N/A,Rain,Light Rain,0,2013-07-06 20:53:00
4:13 PM,71.6,64.4,78,29.87,7.0,Calm,Calm,-,N/A,,Light Drizzle,0,2013-07-06 21:13:00
4:33 PM,71.6,64.4,78,29.87,7.0,Calm,Calm,-,N/A,,Scattered Clouds,0,2013-07-06 21:33:00
4:53 PM,71.6,64.4,78,29.87,10.0,Calm,Calm,-,N/A,,Scattered Clouds,0,2013-07-06 21:53:00
5:13 PM,71.6,64.4,78,29.86,10.0,Calm,Calm,-,N/A,,Scattered Clouds,0,2013-07-06 22:13:00
5:33 PM,71.6,64.4,78,29.87,10.0,Calm,Calm,-,N/A,,Scattered Clouds,0,2013-07-06 22:33:00
5:53 PM,71.6,64.4,78,29.87,10.0,Calm,Calm,-,N/A,,Scattered Clouds,0,2013-07-06 22:53:00
6:13 PM,71.6,64.4,78,29.88,7.0,Calm,Calm,-,N/A,Rain,Light Rain,0,2013-07-06 23:13:00
6:33 PM,69.8,64.4,83,29.88,4.0,Calm,Calm,-,0.02,Rain,Rain,0,2013-07-06 23:33:00
6:53 PM,68.0,62.6,83,29.87,10.0,Calm,Calm,-,N/A,Rain,Light Rain,0,2013-07-06 23:53:00
7:13 PM,68.0,64.4,88,29.87,7.0,Calm,Calm,-,N/A,,Scattered Clouds,0,2013-07-07 00:13:00
7:33 PM,68.0,62.6,83,29.85,7.0,Calm,Calm,-,N/A,,Scattered Clouds,0,2013-07-07 00:33:00
7:53 PM,68.0,62.6,83,29.85,7.0,Calm,Calm,-,N/A,Thunderstorm,Scattered Clouds,0,2013-07-07 00:53:00
8:14 PM,68.0,62.6,83,29.85,10.0,Calm,Calm,-,N/A,Rain-Thunderstorm,Light Thunderstorms and Rain,0,2013-07-07 01:14:00
8:33 PM,66.2,62.6,88,29.89,3.0,NW,9.2,-,0.18,Rain-Thunderstorm,Heavy Thunderstorms and Rain,310,2013-07-07 01:33:00
8:53 PM,64.4,59.0,83,29.86,10.0,Calm,Calm,-,0.01,Rain-Thunderstorm,Light Thunderstorms and Rain,0,2013-07-07 01:53:00
9:13 PM,62.6,59.0,88,29.85,10.0,Calm,Calm,-,0.04,Thunderstorm,Overcast,0,2013-07-07 02:13:00
9:33 PM,64.4,60.8,88,29.86,7.0,NW,3.5,-,0.04,Thunderstorm,Thunderstorm,320,2013-07-07 02:33:00
9:53 PM,64.4,60.8,88,29.87,10.0,Calm,Calm,-,N/A,Rain-Thunderstorm,Light Thunderstorms and Rain,0,2013-07-07 02:53:00
10:13 PM,64.4,60.8,88,29.88,7.0,SSE,9.2,-,0.14,Rain-Thunderstorm,Heavy Thunderstorms and Rain,150,2013-07-07 03:13:00
10:33 PM,62.6,57.2,82,29.89,7.0,Calm,Calm,-,0.15,Rain-Thunderstorm,Light Thunderstorms and Rain,0,2013-07-07 03:33:00
10:53 PM,60.8,57.2,88,29.89,5.0,East,8.1,-,N/A,Rain-Thunderstorm,Light Thunderstorms and Rain,80,2013-07-07 03:53:00
11:13 PM,59.0,55.4,88,29.89,1.5,ENE,4.6,-,N/A,,Overcast,60,2013-07-07 04:13:00
11:33 PM,59.0,55.4,88,29.89,4.0,Calm,Calm,-,N/A,,Overcast,0,2013-07-07 04:33:00
11:53 PM,60.8,57.2,88,29.89,3.0,Calm,Calm,-,N/A,,Overcast,0,2013-07-07 04:53:00